User: anonymous   Login
Location: Unspecified
(38.9917°N, 0.0000°E)
Time: 12:14:17
(UTC+00:00)
Language:

STARS - Orbit

View from above orbital plane
View from above orbital plane
View from above satellite
View from above satellite

Ground track
Ground track

The orbit data is extracted from the following two-line orbital elements,

1 33498U 09002G   19259.66903519 +.00000131 +00000-0 +25345-4 0  9991
2 33498 098.2980 111.7208 0009787 237.0922 122.9347 14.79021499572885
Epoch (UTC): 16 September 2019 16:03:24
Eccentricity: 0.0009787
inclination: 98.2980°
perigee height: 625 km
apogee height: 639 km
right ascension of ascending node: 111.7208°
argument of perigee: 237.0922°
revolutions per day: 14.79021499
mean anomaly at epoch: 122.9347°
orbit number at epoch: 57288

The dashed part of the orbit path shows where the satellite is in the earth's shadow,  

DLR